Theta_e
323 327 326 326 327 327 325 326 328 324 325 326 332 346 350 351 355 357 361 362 362 367 368 366 365 367 366 362 359 359 360 358 357 358 357 353 351 351 351 350 349 348 346 345 346 349 349 350 350 351 351 351 351 351 352 352 351 351 351 352 352 352 351 350 350 349 349 348 348 348 349 349 348 348 348 349 349 349 347 345 345 345 345 346 346 346
324 327 327 328 328 326 325 327 326 322 323 322 323 325 325 340 354 352 359 362 360 367 368 366 367 366 363 361 359 357 359 359 356 357 358 355 351 351 352 350 350 349 346 344 346 348 349 350 350 351 351 351 351 351 351 351 351 351 351 351 351 351 351 350 350 349 348 349 348 349 349 349 348 349 348 348 349 349 347 345 345 345 346 346 346 346
324 326 328 327 323 321 323 323 323 322 323 321 322 320 314 327 347 351 360 364 359 366 369 365 366 365 361 359 356 355 358 359 355 355 358 358 354 351 352 351 350 350 347 345 346 348 349 350 350 351 351 351 351 351 351 351 351 352 352 351 350 351 351 350 350 349 349 349 349 349 349 349 349 349 348 346 348 349 347 345 346 346 347 348 347 347
324 326 326 325 321 320 322 321 321 322 321 321 319 318 316 324 346 356 362 364 359 362 366 366 366 364 362 360 356 353 355 358 358 357 358 360 359 354 351 351 350 349 348 345 346 348 348 349 350 350 350 350 350 350 351 351 351 352 352 351 350 351 351 351 350 349 349 349 349 349 349 349 349 349 349 348 348 350 348 347 348 348 349 349 347 347
327 326 323 323 321 322 323 321 322 321 321 322 319 317 317 321 347 364 365 362 362 360 362 363 361 361 362 362 360 356 355 357 358 358 359 360 362 359 355 353 351 348 346 345 347 347 347 348 349 350 349 349 349 349 350 351 351 351 352 351 351 352 352 351 350 350 349 349 349 350 349 350 350 349 350 351 351 351 350 349 349 349 350 349 348 348
328 325 321 323 322 322 322 323 324 322 320 319 319 321 318 324 354 368 363 360 359 358 360 359 353 356 362 362 362 359 357 359 357 356 358 359 360 360 357 354 352 348 344 344 346 346 347 347 348 349 348 348 348 349 350 350 351 351 351 351 351 352 352 351 350 350 349 350 350 350 350 350 349 350 350 351 351 352 352 349 348 349 350 349 349 350
325 322 321 324 324 322 322 322 322 322 319 316 320 321 316 336 367 365 359 358 355 354 359 357 351 351 356 361 363 359 357 359 357 356 357 357 359 359 356 354 352 347 343 344 345 345 346 347 347 348 347 347 348 348 349 349 350 351 351 351 351 352 353 352 350 350 351 351 350 349 350 350 350 350 350 350 351 351 352 351 349 350 350 350 351 352
323 322 322 323 324 323 323 322 321 321 318 317 322 319 317 344 371 364 358 358 356 357 359 359 352 347 350 358 363 359 357 360 359 358 358 357 357 358 355 354 354 348 342 343 345 345 346 347 347 347 347 347 347 347 348 348 350 351 351 351 351 352 352 352 351 350 351 351 350 349 350 351 350 349 350 350 350 350 352 353 351 350 351 352 353 353
323 322 323 323 323 323 323 325 323 320 320 322 324 319 321 346 366 364 360 354 353 354 355 357 351 347 351 357 362 362 359 362 362 359 359 357 355 356 355 355 356 352 344 342 344 345 345 346 346 346 346 346 347 347 347 348 350 351 351 352 351 352 352 353 351 350 352 351 349 349 350 351 350 349 349 349 350 350 352 354 354 352 352 352 353 354
323 323 325 322 322 324 324 326 323 318 321 324 321 318 323 340 356 363 361 352 347 348 351 354 350 347 351 356 361 365 362 362 362 359 358 357 355 355 354 354 357 356 351 344 342 343 344 345 346 346 346 346 346 347 347 347 349 350 351 352 351 352 352 352 351 350 351 350 349 349 350 351 351 349 349 350 350 351 352 354 355 354 353 352 352 352
323 324 327 324 323 324 323 322 320 319 322 321 319 321 324 337 351 360 360 351 346 346 348 350 350 346 348 354 360 363 363 363 362 360 358 356 355 355 354 353 356 357 356 350 343 341 343 344 345 345 345 345 345 346 346 347 349 350 351 351 352 352 352 353 352 351 351 349 349 349 350 351 351 351 351 352 352 353 354 355 355 354 354 354 354 353
322 321 326 328 327 324 320 320 319 318 319 319 325 326 321 332 348 352 350 346 344 347 347 349 352 346 344 351 358 362 363 362 361 360 360 357 356 355 353 353 356 356 357 355 348 343 342 342 343 344 344 345 345 345 346 347 348 349 350 351 352 352 353 352 352 351 350 349 348 349 350 351 351 352 352 353 354 354 355 356 356 355 355 356 356 355
323 322 323 325 328 324 319 321 319 316 317 317 324 325 319 326 342 347 344 341 342 344 344 348 351 347 347 350 354 360 362 361 360 359 358 358 357 356 353 352 355 356 357 356 352 345 342 342 342 342 343 344 345 345 345 347 348 349 350 351 352 352 352 352 352 351 350 349 349 349 350 350 351 352 352 352 353 353 354 355 355 355 356 356 356 356
321 323 323 321 323 323 321 321 319 318 318 316 318 320 320 328 337 341 342 343 345 341 340 347 349 347 349 348 352 356 354 355 358 357 357 357 357 356 353 351 352 355 358 357 355 349 342 341 341 342 343 344 345 345 345 346 348 349 350 351 351 351 352 351 352 352 351 350 349 349 350 351 351 351 352 352 352 352 353 353 354 355 355 354 355 354
318 320 325 324 320 321 322 321 324 325 319 317 322 322 323 331 333 333 339 345 344 340 339 342 345 349 347 343 349 353 349 350 354 357 358 356 357 356 353 351 351 352 356 357 357 352 344 340 341 342 342 344 345 344 345 346 348 348 349 350 351 351 351 351 352 352 351 351 350 349 349 350 351 351 351 352 352 352 352 353 353 354 354 354 354 353
319 320 327 325 319 320 323 322 324 326 318 317 324 321 319 327 329 326 332 340 339 340 345 342 344 353 353 348 351 352 353 354 355 358 360 358 357 357 354 352 351 352 354 355 357 355 348 341 340 342 343 343 344 344 345 346 347 348 349 350 350 350 350 350 351 351 350 350 349 349 349 350 351 351 351 352 352 352 352 353 353 353 353 353 354 354
319 322 327 325 322 323 325 324 322 322 322 321 320 319 321 326 330 325 323 333 336 336 342 348 353 358 355 351 351 353 358 360 359 358 360 359 358 357 356 353 351 351 351 354 356 355 351 345 341 341 342 344 344 344 345 346 347 348 348 349 350 350 350 350 351 350 350 350 349 348 349 350 351 351 351 352 352 353 352 353 353 352 352 352 352 354
317 322 328 326 324 325 323 322 322 322 325 324 318 321 325 324 331 330 324 331 338 339 344 352 356 356 351 349 351 354 359 361 361 360 360 360 359 357 357 354 351 350 351 356 358 355 351 348 345 342 341 343 344 344 344 345 347 347 348 349 349 350 350 350 350 349 349 349 348 348 349 350 351 351 351 352 352 352 353 353 353 352 352 352 352 353
318 321 328 327 323 325 324 321 321 323 325 326 323 325 325 321 323 325 323 327 333 342 352 353 351 352 351 351 352 355 358 360 362 362 360 361 360 359 359 358 356 355 356 358 359 358 354 350 349 345 342 343 343 344 344 345 347 348 348 349 349 349 349 349 350 349 350 349 348 347 348 350 351 351 351 351 352 352 352 353 353 352 353 353 352 352
322 320 324 329 323 320 325 325 323 325 325 325 326 323 325 328 326 323 324 330 336 344 351 350 350 353 353 351 352 355 357 359 361 361 359 358 357 358 359 361 360 357 358 359 357 357 354 350 350 348 344 344 343 344 344 344 346 347 348 349 349 349 349 350 350 350 350 350 349 348 348 350 352 352 352 351 352 352 352 353 353 353 352 352 352 352
326 322 319 328 327 319 322 323 323 326 324 324 326 321 321 325 325 323 322 329 344 353 351 349 350 352 351 350 352 355 355 355 357 357 355 352 352 353 353 356 357 353 354 355 354 353 351 349 350 349 347 346 344 345 345 345 346 347 347 348 348 349 349 349 350 350 350 350 349 349 349 350 351 352 352 352 352 352 352 353 353 352 353 352 352 352
325 325 321 326 325 320 323 324 323 324 323 327 327 320 320 322 322 324 320 323 342 353 349 348 351 352 350 349 351 353 352 352 351 351 352 351 350 351 351 352 353 352 352 351 351 352 351 349 350 350 349 348 347 347 346 345 346 347 348 348 348 348 349 349 350 350 350 349 350 349 349 350 351 351 352 352 352 353 354 354 353 352 352 352 352 352
329 328 323 325 324 322 324 324 323 321 321 326 324 319 322 324 324 327 323 325 339 347 346 348 351 352 349 348 350 350 348 349 348 348 349 350 349 350 350 351 352 353 352 351 351 351 350 349 350 349 349 349 349 350 350 349 348 347 347 348 348 348 349 349 349 349 350 350 350 350 350 350 350 351 352 352 352 353 354 354 353 352 352 352 352 352
330 327 324 329 337 338 333 330 329 326 324 326 325 323 321 317 321 327 331 338 344 347 350 349 349 352 349 348 350 348 346 347 346 346 347 347 347 347 348 350 351 351 351 351 351 350 349 349 349 349 349 349 349 349 350 351 350 350 349 349 349 349 349 350 350 350 351 350 350 351 351 351 351 351 352 352 352 352 354 354 353 352 352 351 352 352
321 326 330 332 337 338 336 335 331 326 327 327 327 328 321 318 323 329 336 345 345 345 347 343 345 352 351 348 348 347 346 346 344 344 345 346 346 345 345 347 348 348 349 349 350 349 349 349 349 349 349 349 349 349 349 349 350 351 352 350 349 350 350 351 351 351 351 351 351 351 352 352 352 352 352 352 352 352 353 354 354 353 352 352 352 352
318 326 334 335 332 328 328 332 328 324 327 325 323 323 318 319 326 331 335 335 333 338 343 342 348 354 351 349 350 347 345 345 343 342 342 343 344 343 344 345 345 346 348 349 348 347 348 349 348 348 348 348 349 348 348 348 349 350 351 352 351 351 352 352 351 352 352 352 352 352 352 353 352 353 353 352 352 352 352 353 354 354 353 352 352 352
333 332 337 340 335 328 329 334 331 329 328 322 319 320 319 322 330 337 339 334 333 340 344 346 352 353 352 353 352 348 345 344 343 342 341 341 342 341 343 343 343 345 346 346 346 346 347 347 346 347 347 348 348 348 348 348 348 349 350 350 350 352 352 351 351 352 352 353 353 353 353 353 353 353 353 353 353 352 352 352 352 353 353 353 353 353
339 329 329 334 333 331 334 333 326 325 324 319 319 320 320 329 336 334 332 335 340 341 342 347 352 351 352 355 352 347 345 343 342 342 341 341 340 340 341 341 342 343 343 344 344 344 346 347 346 346 347 348 349 349 348 348 348 349 349 348 349 351 351 351 351 351 353 353 354 353 354 354 353 353 353 353 353 353 353 352 352 352 353 353 353 352
330 322 322 324 327 330 331 326 322 321 320 319 321 320 319 329 339 337 335 342 345 338 339 348 351 350 352 352 349 345 343 342 342 341 340 339 339 338 338 339 340 340 341 341 341 342 344 345 345 345 346 346 347 347 347 347 347 348 348 349 349 350 350 351 350 351 352 352 353 354 354 352 353 354 353 353 353 353 353 353 353 352 352 352 352 352
324 322 325 323 322 325 327 326 324 322 320 320 322 322 321 327 337 346 346 346 348 345 345 348 349 351 352 349 345 342 340 340 340 338 338 338 338 338 337 338 339 339 339 339 339 340 340 341 342 343 343 344 345 345 345 346 346 346 347 347 348 349 349 349 349 349 350 350 351 353 350 349 352 354 353 353 353 353 353 353 353 353 352 352 351 351
318 318 327 331 324 321 324 329 330 326 321 321 322 326 329 328 334 349 350 346 349 350 347 348 350 352 351 345 341 340 338 339 338 337 337 337 336 337 336 337 338 338 338 338 338 339 338 339 340 340 341 341 341 342 342 343 344 343 343 345 346 347 348 349 349 349 349 349 349 350 349 349 351 353 352 352 352 352 352 352 352 352 352 352 351 351
323 320 330 338 330 322 321 326 332 330 323 321 323 330 336 331 329 341 345 343 348 350 347 349 352 351 347 342 340 339 338 337 337 336 336 335 335 335 335 336 336 336 336 336 336 337 337 337 338 338 339 339 339 340 340 341 342 341 342 343 343 345 347 348 348 348 348 348 349 348 348 348 349 350 350 350 351 350 350 350 350 350 351 351 351 350
328 322 324 332 331 324 322 325 332 331 325 325 326 329 336 336 334 341 343 339 342 346 347 349 349 347 344 340 339 339 337 336 336 334 335 335 334 333 331 332 333 332 332 333 333 334 334 334 334 335 336 336 336 336 337 337 337 338 339 341 342 343 344 344 344 345 345 347 348 348 348 348 349 348 348 349 349 349 349 348 348 349 349 350 350 351
334 331 324 329 330 323 324 330 334 332 329 330 328 327 334 338 339 342 339 334 337 340 343 346 345 343 341 339 338 338 335 335 334 331 331 331 331 330 327 327 328 328 328 329 329 330 330 330 330 331 331 331 331 330 330 330 330 331 333 335 337 339 340 340 340 341 341 342 344 345 345 346 347 347 348 349 349 349 349 349 348 348 348 349 349 349
336 335 329 329 327 325 331 335 331 330 332 334 329 327 333 336 335 339 338 333 335 339 341 344 343 340 339 337 336 335 332 330 329 328 327 326 326 326 325 324 325 325 325 327 327 327 327 327 327 327 327 327 327 326 325 325 326 326 328 330 331 333 334 334 334 334 335 335 337 339 340 340 340 341 343 345 347 348 349 349 349 349 350 350 350 350
329 330 331 330 321 320 329 334 333 333 331 331 329 325 327 330 331 340 345 336 333 337 340 340 339 337 335 334 331 330 329 327 326 325 324 323 323 323 323 322 322 323 324 325 324 324 324 325 325 326 326 325 325 323 323 324 325 325 325 326 327 327 327 328 328 328 330 330 331 333 335 336 337 337 338 340 343 345 347 348 349 349 351 351 352 352
331 329 329 328 322 320 326 330 332 330 323 324 326 323 323 322 321 336 349 341 332 336 338 336 336 334 332 331 329 328 326 325 326 324 320 319 320 320 320 320 321 322 322 322 321 322 322 323 324 324 324 324 323 323 323 323 324 324 323 323 324 324 325 325 325 325 326 327 328 329 330 332 333 334 335 336 338 340 342 343 345 346 349 350 351 352
329 325 323 325 326 328 332 331 327 325 325 328 327 324 323 320 317 330 347 345 335 334 335 335 336 334 331 329 328 328 327 328 328 324 319 317 318 318 319 320 320 320 321 320 321 321 321 322 323 323 323 323 322 323 322 322 322 322 322 322 321 322 323 323 323 324 324 326 326 326 327 328 329 330 331 332 334 335 337 339 340 342 344 345 346 348
330 328 330 333 331 331 336 333 327 327 330 330 329 327 324 321 322 331 342 344 338 334 333 334 335 335 332 330 329 328 329 330 327 322 319 318 318 317 318 319 319 319 320 320 320 320 320 321 322 322 322 322 322 322 322 322 321 321 321 320 320 320 321 321 321 322 323 324 325 326 327 328 328 329 330 331 332 333 334 334 336 338 340 340 341 342
336 333 332 332 332 334 335 330 325 328 329 327 330 331 324 321 325 331 336 338 337 334 333 332 332 333 332 331 330 330 330 329 327 324 321 320 318 317 318 318 318 319 319 319 319 320 320 320 321 321 321 321 321 321 321 321 321 320 320 320 320 320 319 319 319 319 321 323 324 325 326 327 328 329 329 331 332 333 333 332 333 335 338 339 340 341
337 332 327 324 326 331 330 323 321 327 327 324 326 328 323 321 324 331 336 336 335 334 333 331 330 329 330 332 334 333 330 327 325 325 324 322 320 319 318 317 318 318 319 319 319 319 319 319 319 319 319 320 320 320 320 320 319 320 319 319 319 320 318 318 317 317 319 321 323 324 325 325 326 327 328 329 330 332 333 334 335 336 338 338 340 342
329 327 326 324 318 320 327 326 325 327 324 322 325 325 323 323 326 331 332 331 332 334 333 331 329 329 331 334 334 331 328 324 321 322 323 322 322 321 319 318 319 319 318 318 318 318 318 318 318 318 318 319 320 319 319 319 319 319 319 318 318 318 318 317 317 316 316 318 320 322 323 323 324 325 326 327 329 330 331 333 336 337 338 339 341 343
321 320 325 325 317 319 328 329 326 325 323 323 326 326 322 321 324 327 325 324 328 333 332 330 330 330 331 332 329 326 324 323 321 322 321 321 321 320 319 319 319 318 317 317 317 317 317 316 316 317 317 318 318 318 319 318 318 317 317 317 317 317 317 316 316 315 316 316 318 319 320 320 321 322 323 324 326 327 328 329 331 333 334 336 338 340
319 319 325 327 323 325 329 327 324 325 323 322 324 325 324 323 323 327 329 327 327 329 330 330 331 330 329 328 327 326 324 322 321 321 320 320 319 319 318 318 317 317 317 316 316 316 315 316 316 316 317 317 317 317 317 317 317 316 316 316 316 316 316 316 315 315 316 316 316 317 317 317 318 319 320 321 322 324 325 326 327 328 329 330 331 332
319 322 325 325 323 324 327 327 328 327 324 322 323 323 326 327 324 325 330 329 327 327 330 331 331 329 325 324 325 325 322 320 321 320 320 320 318 317 317 317 316 316 316 315 315 314 314 314 315 316 316 316 316 316 316 315 315 315 315 315 316 316 316 315 315 315 315 316 316 315 316 316 315 316 317 317 318 320 321 323 324 326 326 327 327 327
321 321 320 320 319 320 320 322 325 325 323 324 324 322 322 324 323 322 325 327 326 327 328 329 328 326 322 321 323 323 320 320 320 320 319 319 317 316 316 316 315 315 315 314 314 314 314 314 315 315 315 315 315 315 315 315 315 315 315 315 315 315 315 315 315 315 315 315 315 315 315 315 315 315 314 315 315 316 317 318 320 322 323 324 324 325
324 324 324 323 321 320 319 321 324 324 322 323 326 326 324 323 321 321 322 324 323 323 325 325 324 323 321 321 321 320 319 319 319 319 318 317 316 315 314 314 315 314 314 314 314 314 315 315 315 315 314 314 314 314 314 314 314 315 315 315 315 315 315 315 316 315 315 315 315 315 315 316 316 315 314 314 314 314 314 315 316 318 319 320 320 321
323 323 325 325 323 322 320 321 324 324 321 320 323 326 326 324 322 320 320 321 320 319 321 321 321 323 324 323 322 321 320 320 319 318 318 316 315 314 314 313 314 314 313 313 313 313 314 314 314 314 313 313 314 314 315 315 315 315 315 316 315 315 315 315 316 316 315 316 315 316 316 316 316 316 315 315 315 314 314 314 314 315 316 316 317 318
322 320 322 324 328 329 323 321 323 324 323 322 322 323 322 323 324 324 322 321 319 318 319 319 319 321 323 324 323 323 323 322 320 318 317 316 313 313 313 313 313 313 313 312 312 312 313 314 314 313 313 314 315 315 315 315 315 316 316 316 316 316 316 316 316 316 316 316 316 316 316 316 316 316 316 315 315 314 315 315 315 315 315 315 316 317
322 323 324 322 327 330 327 323 322 323 326 324 321 322 323 323 326 329 327 324 322 320 319 319 318 318 320 321 320 321 323 323 320 318 316 314 312 313 313 313 313 313 312 311 312 313 313 313 313 313 314 315 315 315 315 315 314 314 314 315 315 315 315 316 316 316 316 317 317 317 317 316 316 316 316 316 315 315 315 315 315 315 315 315 315 316
323 325 325 326 329 328 327 327 325 325 327 324 320 323 323 322 327 331 327 325 325 320 317 318 318 317 319 319 318 319 320 319 317 316 314 313 312 313 313 313 312 312 311 312 313 313 313 313 313 313 314 315 315 315 315 314 313 313 312 312 312 312 312 313 312 313 315 316 316 316 316 315 315 315 315 315 315 315 315 315 314 314 315 315 315 315
Wind_Speed
3 3 2 4 5 5 5 6 6 4 4 5 3 3 2 3 2 1 2 5 9 6 4 7 5 3 3 4 6 5 6 8 7 6 6 9 10 10 10 10 11 10 10 15 20 22 23 24 23 23 22 22 22 23 23 23 23 23 21 20 20 19 17 16 16 15 16 16 15 14 14 13 13 12 11 10 9 6 7 9 9 9 9 8 8 8
3 4 5 6 7 6 5 5 5 2 4 5 4 3 0 2 3 2 2 6 8 4 3 6 5 3 3 4 3 3 7 11 11 10 8 9 10 9 10 11 11 9 8 11 15 19 22 22 22 22 22 23 23 24 25 25 25 24 22 21 20 19 18 17 18 18 18 18 17 16 15 14 13 13 12 10 9 7 8 10 10 9 8 8 9 9
2 3 7 7 5 4 3 3 3 2 4 4 3 3 0 2 2 2 2 5 7 2 2 6 6 5 4 6 5 4 7 9 10 10 8 8 9 9 10 11 11 9 7 9 12 16 20 21 22 22 22 24 25 25 26 26 26 25 24 22 21 20 19 18 19 19 19 18 17 15 14 13 13 13 11 10 9 8 8 10 10 9 9 9 9 9
2 4 7 6 5 6 3 3 6 3 2 3 3 3 2 3 1 1 1 4 4 2 3 5 3 3 4 5 6 6 7 5 6 7 6 5 4 7 9 9 10 10 9 10 11 13 18 20 22 22 23 24 24 24 25 26 26 26 26 25 23 21 19 19 20 20 20 18 16 14 12 13 13 12 12 11 10 10 10 10 10 9 9 9 10 10
4 5 3 5 6 6 4 3 6 4 1 2 2 4 3 2 2 2 3 4 3 3 3 6 3 1 4 5 5 6 6 6 4 5 7 6 4 3 6 8 10 10 10 11 11 11 16 19 22 23 24 24 24 25 27 27 28 27 27 26 24 22 20 20 21 21 20 18 17 15 14 14 14 13 13 14 13 12 11 11 11 10 10 10 11 11
5 6 4 6 4 4 4 3 4 6 2 3 3 7 6 5 4 6 8 5 3 1 2 4 2 3 4 7 6 5 6 7 5 7 10 10 6 4 6 8 8 8 9 11 12 13 16 19 22 23 23 24 25 27 29 30 30 29 28 27 25 23 22 22 23 22 21 19 18 17 16 17 18 16 17 17 16 15 14 13 13 12 12 12 12 11
3 2 4 5 4 4 3 3 4 5 5 2 5 7 7 6 7 9 9 5 2 3 3 4 3 2 3 5 8 7 7 8 9 10 12 11 8 6 7 8 7 8 8 9 11 13 16 19 21 21 23 25 26 28 29 29 29 29 29 29 27 25 24 24 24 23 22 20 19 18 18 18 20 20 20 19 17 16 14 13 13 13 13 13 13 12
2 1 3 4 4 4 3 3 4 6 7 3 5 6 7 7 8 11 9 4 2 2 2 3 3 1 3 4 8 10 9 9 11 13 13 12 11 9 8 9 8 9 9 9 10 12 16 21 22 23 25 28 29 28 28 28 29 29 30 30 28 27 26 25 25 25 23 21 21 21 18 17 19 20 20 19 18 17 15 14 14 14 15 15 14 13
2 3 3 4 3 3 4 5 7 8 5 6 5 6 7 7 7 9 7 3 2 3 1 3 3 1 4 3 5 9 8 9 12 14 14 14 14 11 9 9 8 8 9 10 11 13 16 21 25 27 28 29 29 28 29 30 31 30 31 30 29 28 27 26 27 26 24 23 23 22 20 18 18 18 19 19 19 19 17 16 15 15 15 16 15 14
2 5 6 6 4 5 6 6 9 10 5 6 5 4 3 2 3 5 5 3 3 2 3 6 5 2 3 2 6 8 8 11 13 12 13 14 15 13 10 9 8 6 7 9 11 14 19 23 27 29 29 29 29 29 30 30 30 30 30 30 30 29 28 27 28 27 25 25 24 22 20 19 18 19 20 19 20 20 19 18 16 16 15 15 15 14
4 2 3 4 4 6 6 5 8 11 9 3 2 3 4 5 4 4 2 3 3 2 4 8 10 5 2 2 6 8 6 8 11 10 11 13 14 14 11 9 8 7 6 7 9 13 19 24 26 27 27 28 28 27 28 28 29 30 30 31 31 31 29 29 28 27 26 27 26 23 21 20 19 21 22 21 21 21 21 20 18 17 16 15 14 13
6 3 2 3 5 6 4 2 3 6 7 4 3 4 4 3 3 4 3 2 3 5 4 7 10 6 3 4 5 7 4 3 8 12 14 16 15 14 12 10 8 6 6 6 7 10 14 17 20 23 24 25 25 24 25 27 28 29 30 31 31 31 31 30 30 28 27 28 26 24 22 20 20 21 22 21 21 21 21 20 19 17 16 15 14 13
4 4 3 3 4 5 5 1 2 2 2 4 3 5 4 0 2 2 1 1 3 5 3 6 9 4 5 4 2 6 7 4 7 10 13 16 16 14 13 11 8 6 6 5 6 8 10 12 17 20 21 22 23 25 27 28 28 29 30 31 31 32 32 32 31 29 29 28 27 25 23 20 19 19 19 19 19 19 19 19 18 17 16 15 15 14
3 5 4 2 3 3 7 5 1 1 3 6 5 5 4 3 3 2 2 0 2 4 1 6 8 2 4 2 3 6 8 7 6 8 11 14 15 15 14 12 9 7 7 5 5 7 9 12 18 20 21 23 24 26 27 27 28 29 29 30 31 31 31 31 31 30 29 29 27 26 24 21 19 19 18 18 19 18 18 17 16 16 15 14 14 13
1 3 3 3 2 1 4 6 6 5 5 5 5 6 5 4 4 4 3 3 3 2 1 5 5 2 2 1 6 8 7 7 6 7 8 10 12 12 12 12 10 8 7 5 5 6 9 14 19 20 21 24 25 26 27 27 27 28 28 30 30 30 31 31 31 30 29 28 27 27 26 22 19 18 17 18 19 18 17 16 15 15 14 13 12 11
2 4 7 4 2 3 3 4 5 7 3 3 3 5 4 5 5 2 3 5 3 2 2 3 3 2 3 1 6 7 5 1 5 6 6 9 10 10 10 11 11 9 7 6 6 6 8 13 17 19 21 23 25 26 26 27 28 29 29 30 30 30 31 31 31 30 28 27 26 27 27 24 20 18 17 17 18 18 17 15 14 14 13 12 12 11
1 4 7 4 2 4 5 3 2 4 3 1 3 4 4 5 6 3 2 1 2 3 1 1 1 4 2 1 6 8 8 6 2 5 7 8 10 11 10 10 11 11 9 7 6 5 6 11 16 19 22 23 24 25 27 28 30 32 31 31 31 30 29 31 31 30 29 27 26 27 27 25 22 19 17 17 18 17 16 15 14 13 13 12 12 12
2 3 6 2 2 5 3 2 2 3 5 4 3 5 3 3 3 3 2 2 3 2 2 1 1 3 1 1 4 8 8 8 5 3 5 5 8 9 8 8 10 11 8 6 6 6 6 9 12 16 20 23 26 28 29 31 31 31 32 32 31 30 30 31 31 31 29 28 27 28 28 27 23 20 18 17 17 16 16 16 15 14 13 13 13 12
2 1 7 3 2 6 4 3 0 3 1 4 4 4 4 3 1 1 2 2 1 2 2 2 2 2 2 2 3 6 6 6 6 5 5 5 5 5 4 5 6 7 6 5 6 5 5 7 8 11 18 23 26 28 29 29 29 29 29 30 30 31 31 31 31 30 29 28 27 27 28 28 24 21 19 18 17 17 16 16 15 15 14 13 13 13
1 1 4 5 3 4 5 3 2 3 3 1 2 2 2 3 4 3 2 3 3 3 2 1 1 2 3 2 2 2 3 4 5 6 6 7 7 6 5 4 5 7 6 5 5 4 5 7 6 9 14 19 22 24 25 26 26 27 27 26 27 29 28 28 28 29 29 28 27 27 27 27 25 22 21 19 18 18 18 16 15 15 15 14 14 13
1 2 2 6 4 2 3 1 3 3 1 1 2 1 1 1 2 3 1 1 4 4 3 2 1 4 3 2 2 2 4 4 5 7 7 8 10 9 8 7 7 7 6 5 5 6 6 5 6 4 6 11 17 22 25 26 26 26 27 27 27 27 26 26 27 28 29 28 27 26 27 27 26 23 22 20 19 19 19 17 16 16 15 14 14 13
1 1 1 4 4 2 3 4 4 4 5 4 3 2 3 2 3 3 1 1 2 4 3 4 3 4 2 1 1 3 5 5 7 9 8 8 9 9 8 9 8 7 7 7 7 7 9 11 10 6 7 11 16 19 22 25 26 26 27 27 27 27 27 27 27 28 29 29 28 27 27 27 26 25 23 22 21 20 20 19 17 16 16 15 14 14
1 2 1 2 3 3 7 6 3 2 3 3 2 2 2 2 4 5 4 3 1 2 1 3 1 4 3 1 2 4 5 6 7 8 8 8 8 8 8 9 9 9 8 8 8 9 10 11 10 11 13 14 13 12 14 19 24 27 29 29 27 27 27 27 27 28 28 27 28 28 27 26 26 25 24 23 23 22 22 20 18 17 17 17 16 15
1 2 2 3 4 4 6 6 4 2 4 3 3 2 2 1 1 5 5 3 3 2 1 3 0 3 2 2 3 5 6 6 6 7 9 8 7 8 8 7 8 9 8 8 8 8 9 9 8 10 13 12 10 8 6 5 8 15 21 23 23 23 23 23 24 24 25 26 26 27 26 25 25 25 25 25 24 24 23 22 20 19 18 17 17 17
1 1 2 2 3 4 5 6 6 4 4 2 3 3 3 3 2 4 2 3 2 3 4 4 2 3 2 4 5 6 7 8 7 7 8 8 8 8 8 7 7 7 7 7 8 8 8 8 7 10 11 10 9 7 5 1 2 7 13 18 23 22 20 19 19 19 21 23 24 25 25 25 25 25 25 26 25 25 25 24 21 20 19 18 18 18
1 2 2 2 2 1 0 2 3 4 4 2 3 4 6 5 1 4 3 3 2 3 4 5 3 2 5 7 7 7 8 8 7 7 8 7 8 8 7 7 6 6 6 5 6 8 8 8 9 10 7 3 3 7 9 10 14 15 15 15 17 16 14 15 16 16 17 20 22 24 24 24 25 25 26 26 25 25 25 25 24 22 21 20 19 19
3 2 2 4 4 4 4 3 4 3 2 4 6 8 7 6 1 4 4 2 4 4 3 3 4 8 10 11 10 8 8 8 8 8 8 7 7 7 6 6 6 6 4 3 4 6 7 6 6 5 1 1 3 5 10 13 14 14 11 9 7 6 8 11 14 17 18 18 19 20 22 24 24 25 24 24 24 24 24 24 24 24 22 21 20 20
4 3 2 3 3 2 5 5 5 3 1 2 8 10 9 9 4 3 3 4 6 6 3 5 7 11 13 13 12 10 9 9 9 9 8 7 7 7 7 6 6 6 5 5 5 6 7 6 6 9 8 6 6 6 8 7 7 8 9 12 12 9 9 11 15 19 20 19 18 19 22 24 24 23 22 22 23 23 23 23 23 23 23 22 22 22
5 2 2 2 1 3 4 4 2 4 3 2 6 8 10 11 6 1 2 3 6 5 4 7 10 10 10 13 12 10 9 9 9 9 8 8 7 8 8 7 7 7 7 7 7 7 8 8 8 11 13 11 9 6 4 3 2 4 5 8 10 10 9 11 15 18 19 18 20 22 22 20 20 20 19 19 21 22 22 23 22 22 21 21 21 22
4 1 3 1 1 1 5 5 2 7 7 4 6 9 10 9 6 3 3 3 4 1 3 10 12 6 6 10 11 9 8 8 8 8 8 9 8 8 9 9 8 8 8 8 8 8 8 9 11 13 15 14 13 12 12 12 9 7 5 2 3 6 8 10 13 15 14 14 17 20 17 14 16 20 19 17 18 19 20 21 20 20 19 18 18 18
3 1 2 2 2 2 6 7 5 7 7 5 7 12 13 11 7 4 4 4 5 4 4 11 11 4 4 8 10 9 8 7 8 9 8 8 8 9 10 10 9 9 8 8 8 8 8 10 12 14 15 15 16 16 16 16 16 15 13 10 7 6 8 10 11 13 14 14 15 17 15 14 17 20 19 17 17 17 18 18 17 17 16 16 16 15
3 2 2 4 3 2 5 5 5 6 7 7 10 14 14 10 5 3 4 3 2 6 9 9 7 5 6 9 11 10 9 9 9 9 8 7 8 10 10 10 9 8 9 8 8 9 9 9 11 13 14 16 17 18 18 19 20 20 18 15 14 12 9 7 6 6 8 11 15 17 16 16 16 16 16 16 17 17 17 16 16 16 17 17 16 17
2 2 2 4 2 2 5 3 2 2 4 6 6 8 10 7 2 3 6 7 4 5 8 5 2 4 8 11 12 11 9 9 8 7 7 7 9 11 10 9 9 9 9 8 8 9 9 9 12 14 16 17 19 20 20 22 23 22 20 20 19 19 18 17 16 15 13 10 7 10 13 12 10 9 10 12 13 12 12 13 14 16 18 19 19 20
2 3 2 2 3 1 6 5 3 3 4 6 3 2 4 5 5 6 5 7 8 4 3 3 4 7 8 9 11 11 9 8 6 5 5 5 7 10 10 10 10 9 9 9 9 10 10 12 15 17 19 20 21 22 23 24 25 25 25 24 24 24 24 24 24 23 22 20 17 13 10 9 8 6 3 2 5 6 7 9 11 13 16 18 20 22
2 3 2 2 3 1 3 4 4 2 6 5 2 2 5 4 5 7 6 7 10 8 2 8 10 10 9 8 9 9 8 8 8 7 6 5 6 8 10 9 9 9 9 9 9 10 13 16 18 19 20 23 24 24 25 26 27 28 28 28 28 28 27 26 26 25 23 22 22 21 19 17 16 14 12 10 7 7 6 6 8 11 12 12 14 16
2 2 2 2 2 2 1 3 3 4 6 3 2 0 3 2 1 4 5 7 9 8 3 7 10 10 11 9 8 9 10 10 9 8 6 6 6 7 8 8 7 8 9 10 11 13 16 19 20 19 21 24 25 26 26 26 27 29 30 29 30 30 29 29 28 26 26 25 23 21 20 20 20 19 17 15 12 10 7 4 1 4 6 7 8 9
4 3 2 1 1 3 3 1 2 3 4 3 2 1 3 1 2 1 1 3 5 6 4 5 9 9 11 11 9 10 11 11 9 6 6 6 7 8 9 9 9 10 11 14 16 18 20 21 22 23 24 25 26 25 25 25 26 28 29 29 30 30 30 29 28 26 26 25 24 23 22 21 21 21 19 17 14 11 7 7 8 7 3 1 4 6
5 2 2 2 0 2 4 2 1 0 3 3 3 3 1 2 2 3 3 2 4 3 2 7 9 6 6 10 10 10 10 9 7 3 4 6 7 9 10 11 13 13 13 16 20 22 22 24 25 25 26 26 25 23 23 22 24 27 28 28 29 29 29 27 25 25 24 23 22 22 22 22 22 20 18 16 14 10 6 5 7 9 8 6 4 2
6 4 3 4 2 2 4 3 1 3 4 4 4 5 4 2 3 4 4 3 3 3 3 9 12 6 4 7 8 8 8 7 5 2 3 5 6 8 9 10 13 15 15 18 21 22 22 24 25 25 25 25 23 21 21 20 21 25 26 26 27 28 27 25 23 23 23 22 20 20 20 21 21 20 19 17 13 9 4 2 3 5 6 6 6 6
5 4 4 4 2 1 3 1 1 2 2 3 4 6 5 1 4 5 2 4 5 6 5 9 14 12 10 9 7 5 5 6 6 4 3 5 8 9 9 9 12 15 17 19 21 22 22 24 25 24 23 22 20 19 19 18 20 23 23 24 25 25 24 22 21 21 20 20 19 19 19 20 20 20 20 19 15 11 5 2 1 3 5 5 4 6
3 3 3 3 1 1 2 1 2 2 2 3 6 7 5 2 3 5 2 5 6 8 6 7 11 12 11 10 7 4 3 6 9 9 7 8 9 9 10 11 12 14 17 19 21 23 24 24 24 23 21 19 17 16 16 17 19 21 20 21 23 22 21 20 19 18 18 18 18 19 19 20 20 20 20 18 17 15 12 8 6 5 5 5 4 4
2 2 2 2 2 2 1 2 1 2 2 3 7 7 3 1 2 3 4 4 7 10 8 7 8 9 8 7 6 6 7 9 12 12 12 11 9 9 10 12 14 15 16 19 21 22 24 23 22 21 19 16 15 14 14 15 18 19 19 20 20 18 17 18 17 17 17 17 18 18 18 19 18 18 18 17 17 17 17 15 13 11 9 8 7 6
1 1 1 0 1 1 2 3 2 1 2 4 7 5 2 1 3 4 2 1 4 9 9 7 7 7 7 7 7 9 12 12 11 12 13 12 11 11 11 13 14 14 15 17 19 21 23 23 20 19 17 14 13 13 12 14 17 19 18 19 17 15 15 16 16 16 16 17 17 17 17 18 17 17 17 17 16 17 18 17 16 15 14 13 11 10
2 1 0 1 2 2 2 0 2 4 4 4 3 1 1 3 4 3 1 1 1 3 5 6 6 5 6 8 10 11 12 13 11 11 12 11 11 12 11 12 14 13 12 15 18 20 22 22 21 19 17 14 13 12 12 13 16 18 18 17 14 13 13 14 14 15 16 16 16 16 17 17 17 16 16 16 15 15 17 17 16 16 15 15 15 14
2 3 2 1 2 2 3 4 4 4 4 4 2 3 5 5 4 2 1 3 3 2 3 5 6 5 5 8 10 10 10 12 12 11 11 10 11 12 12 12 14 15 13 14 16 17 18 19 19 18 17 15 13 13 13 13 15 16 16 14 13 12 12 12 13 14 15 15 15 15 15 16 16 16 16 16 16 15 16 16 15 15 15 14 14 14
3 2 3 1 2 2 2 3 3 3 4 5 4 3 3 4 4 4 2 0 3 3 3 3 3 4 5 7 8 8 9 11 12 10 9 8 10 12 15 14 14 16 16 16 16 17 17 18 17 17 17 15 13 12 12 12 12 14 13 11 10 11 11 11 12 13 14 14 14 15 15 15 16 16 15 16 16 16 16 15 15 15 14 14 14 14
3 2 3 1 1 1 1 3 4 3 3 5 5 4 4 5 5 4 3 2 2 2 5 5 5 6 6 5 6 5 5 8 10 9 8 7 8 11 14 16 15 17 18 18 19 19 19 19 18 17 16 15 12 11 10 10 10 10 9 8 9 9 8 10 12 13 13 13 13 14 15 15 15 15 16 16 16 15 15 15 14 15 15 15 15 15
1 1 1 0 1 1 2 4 4 4 4 4 5 4 4 6 6 5 5 4 4 3 5 7 9 8 7 8 8 8 7 6 3 3 4 6 8 11 14 16 17 18 19 19 19 19 19 19 18 17 15 14 12 11 10 10 9 8 7 7 8 8 8 10 11 11 12 12 12 13 13 13 13 14 14 15 15 15 15 16 15 14 14 15 15 16
1 0 0 1 1 2 3 2 2 3 4 6 6 5 4 4 5 6 6 6 6 6 5 6 8 9 10 10 10 11 10 6 2 2 1 1 5 10 14 16 18 19 19 18 17 16 16 17 17 16 14 13 12 11 11 11 10 9 9 9 8 8 9 11 11 11 11 12 12 13 13 12 11 12 12 13 13 14 14 14 14 14 12 11 11 12
0 1 1 2 1 2 3 2 2 2 1 3 4 5 5 3 4 7 8 7 7 6 5 5 5 6 11 13 13 13 12 11 11 11 7 6 9 13 16 18 18 18 18 18 16 15 15 16 15 15 14 12 11 11 12 12 12 11 11 10 9 9 10 11 11 11 12 12 12 13 13 12 11 11 11 12 12 13 13 12 11 12 12 11 9 8
1 2 3 3 3 4 5 5 3 3 2 3 2 3 5 3 6 7 6 5 6 5 5 5 4 2 4 8 11 13 12 12 15 16 12 12 16 18 19 20 20 19 19 19 18 18 17 16 15 14 13 12 11 11 12 12 12 11 11 11 10 10 10 11 11 12 12 12 11 11 12 12 12 11 11 11 12 12 14 14 13 11 11 11 10 8
Wind_Direction
130 135 186 198 208 200 203 191 169 161 115 114 106 103 164 197 248 259 127 163 160 148 176 178 173 158 144 151 168 178 169 182 201 200 190 182 182 187 182 185 188 191 196 194 195 195 195 197 196 196 195 194 195 195 196 197 200 202 203 202 202 203 201 198 199 200 199 198 199 204 204 200 197 196 199 198 194 189 186 192 192 191 194 194 195 195
106 171 219 216 208 194 186 197 188 149 79 78 92 93 83 214 241 281 127 167 165 138 143 157 151 136 127 134 149 197 190 189 200 199 193 188 185 187 187 188 189 190 188 187 192 193 193 194 193 193 191 190 192 193 195 197 200 202 204 204 203 203 200 196 195 195 198 198 196 197 196 193 191 190 190 187 185 181 180 189 192 193 198 200 199 197
92 216 235 226 198 144 132 153 153 120 84 87 98 112 133 254 239 337 35 151 161 137 145 160 149 137 149 152 152 223 222 201 203 205 200 192 186 190 192 190 190 187 178 182 188 188 190 191 189 189 190 192 194 194 195 197 199 201 203 205 203 201 199 194 193 193 195 196 195 192 189 186 187 188 184 181 179 177 179 187 193 199 202 203 201 197
158 239 238 211 159 134 136 129 116 93 69 94 112 132 215 257 155 24 9 140 134 84 137 145 129 138 152 154 171 213 235 226 206 207 209 206 201 202 200 195 191 185 179 184 186 184 186 187 187 188 190 192 193 195 196 196 197 199 202 204 200 198 196 193 192 192 192 192 191 192 190 187 188 187 184 184 185 181 179 186 194 201 202 203 200 196
213 237 189 127 134 148 159 149 126 121 293 292 176 176 206 219 173 144 141 132 84 37 109 118 76 306 172 178 200 198 215 230 203 187 203 222 241 224 212 207 197 188 182 184 185 183 183 184 188 190 190 190 191 194 197 198 198 199 202 203 199 194 192 192 191 191 191 191 194 198 200 198 196 195 194 195 196 192 188 189 193 196 196 196 194 194
253 243 144 112 122 138 151 186 169 152 186 299 238 205 194 167 144 126 131 126 90 332 241 132 97 296 209 189 193 165 193 210 190 194 207 213 224 226 218 212 200 194 188 185 184 182 182 185 188 190 190 188 191 196 198 199 199 201 203 202 198 193 191 191 191 191 193 195 198 200 202 200 196 197 200 201 199 196 193 190 190 189 190 191 192 194
263 237 137 139 145 132 148 218 220 156 134 278 244 202 184 155 132 141 147 136 141 198 221 172 146 283 246 200 188 173 189 196 188 204 211 208 212 216 216 212 197 195 194 188 185 181 182 185 185 188 190 190 193 197 199 199 199 200 202 201 197 194 192 191 190 193 197 198 199 199 204 205 200 200 204 204 200 197 194 192 192 191 188 190 193 196
200 145 104 129 135 144 175 233 223 150 127 230 238 152 158 165 151 161 162 148 172 145 133 179 141 58 276 241 192 178 182 197 199 206 208 207 209 212 214 212 199 193 191 186 185 183 184 184 185 188 191 193 196 197 196 197 198 199 201 201 198 196 194 192 191 194 200 201 198 198 204 209 208 209 209 207 204 202 200 197 197 196 193 193 196 199
193 174 193 172 158 186 206 209 190 155 150 239 223 129 150 178 165 165 163 146 151 103 97 215 154 124 272 272 179 169 178 204 208 206 205 205 207 212 212 209 201 194 191 186 184 186 186 186 188 189 192 195 196 196 196 198 198 199 200 200 199 198 196 195 193 195 202 202 198 198 202 206 210 214 213 209 208 209 206 203 202 201 200 199 200 204
246 202 193 164 166 209 220 205 172 162 190 241 203 138 103 111 127 143 151 123 107 126 219 208 176 178 271 256 165 171 200 214 208 204 205 204 204 207 209 205 196 187 192 192 187 187 187 188 191 191 192 194 195 196 197 198 197 197 199 199 199 199 198 197 196 197 201 202 200 199 200 203 207 210 212 209 209 210 208 207 207 205 204 203 203 206
288 262 175 150 180 203 214 204 173 178 192 185 139 125 55 41 64 81 76 86 113 245 239 187 181 184 281 255 180 181 210 211 196 195 200 203 203 202 204 203 191 178 183 192 190 188 187 189 192 192 192 193 195 196 195 195 196 197 197 197 198 200 200 199 199 200 202 202 203 203 201 202 203 204 207 206 207 208 207 208 208 207 206 205 205 207
327 325 206 221 213 187 178 205 200 200 194 150 103 108 85 23 29 45 8 49 166 249 254 178 171 168 234 256 210 207 233 201 188 193 195 197 199 198 197 197 188 173 169 180 186 184 181 183 189 191 192 193 191 192 194 195 197 197 197 196 196 198 199 199 199 201 202 203 206 208 206 205 204 203 204 204 205 206 206 208 209 208 208 208 209 210
313 258 261 280 239 170 144 188 320 1 135 151 133 103 109 80 30 74 253 216 203 248 259 162 147 156 238 254 252 236 244 235 205 197 195 195 193 193 193 191 182 163 159 170 179 179 176 178 185 188 189 189 189 192 195 196 197 197 197 197 196 197 198 199 199 201 203 205 209 210 210 210 209 208 208 209 209 209 210 211 210 210 211 212 213 214
311 288 304 306 274 182 145 157 192 50 140 163 164 139 140 142 116 168 222 69 226 254 267 143 142 206 262 288 335 278 252 241 220 204 199 194 189 187 187 185 177 164 160 162 174 179 181 182 185 186 185 186 190 194 196 196 197 198 199 199 199 199 199 199 201 202 205 208 211 213 213 214 215 216 217 219 219 218 217 217 216 217 218 218 219 220
157 286 265 203 249 258 168 185 171 150 162 179 169 145 154 164 148 174 191 174 215 247 83 135 157 214 213 260 314 299 272 236 204 200 194 186 185 181 180 180 176 172 165 159 171 182 187 188 186 184 184 187 192 194 195 196 197 198 200 201 201 201 201 201 203 205 208 211 212 213 214 217 220 223 225 228 229 227 225 225 225 225 225 226 229 230
126 249 256 249 223 174 199 221 146 123 153 204 144 124 167 188 159 139 177 180 179 130 113 162 196 228 191 253 331 341 338 279 169 172 168 174 176 170 176 179 174 177 174 162 171 182 187 188 185 184 185 188 192 194 195 196 197 199 201 203 204 205 204 205 206 208 211 212 213 212 214 218 222 226 230 232 231 230 231 233 234 233 233 232 235 240
60 272 275 306 308 197 192 212 171 160 185 164 127 165 208 178 139 123 179 146 86 130 194 240 282 314 304 296 344 3 12 19 78 148 157 168 167 166 180 181 172 181 183 169 168 170 173 181 184 185 187 189 191 193 196 198 199 201 202 204 205 206 206 207 208 210 212 213 214 214 215 219 221 224 230 232 230 231 233 237 239 239 240 239 241 244
142 277 286 313 315 265 213 168 253 207 151 124 166 201 186 106 99 111 144 39 50 161 262 333 216 291 295 207 335 5 18 11 15 103 135 147 157 168 180 179 179 182 173 149 142 144 149 167 182 186 187 191 194 196 198 200 202 202 203 205 205 206 208 209 210 211 213 214 216 216 216 218 221 222 226 230 231 232 235 238 239 239 240 242 243 246
121 299 295 274 243 295 334 93 7 314 105 142 178 174 131 128 176 103 154 175 128 172 275 315 250 248 196 203 327 7 16 5 23 69 98 112 133 150 150 157 164 148 129 125 135 143 131 130 156 181 190 196 198 199 200 200 201 202 203 206 207 209 212 212 211 212 214 216 218 219 219 219 221 222 224 228 231 233 235 237 239 238 240 243 245 247
58 84 286 281 262 302 355 68 166 297 327 31 98 122 122 143 168 166 163 166 145 158 219 307 314 257 214 220 279 25 26 20 59 77 84 93 99 101 102 108 113 114 125 140 135 112 84 95 132 177 192 199 199 200 201 201 200 201 203 206 208 211 213 212 212 212 214 217 220 221 222 222 223 224 225 228 232 235 235 236 239 240 241 244 245 244
25 72 267 294 318 357 8 351 193 185 166 68 61 118 217 70 130 161 110 83 126 145 170 156 244 262 237 224 228 120 71 50 74 77 73 83 89 89 93 98 105 118 130 128 111 92 95 142 186 173 171 194 199 200 201 201 200 200 202 206 208 211 212 212 212 213 215 218 221 222 223 223 225 225 226 228 234 237 236 235 238 240 242 244 242 242
10 65 242 306 341 357 267 252 224 194 178 160 124 153 189 158 125 136 196 308 112 128 155 157 196 262 262 189 198 110 90 71 79 83 76 76 82 82 85 92 101 114 122 123 124 124 146 177 184 143 145 189 199 198 198 198 198 200 204 207 209 211 213 214 214 215 217 218 221 223 224 225 226 227 228 229 233 236 235 235 238 240 241 242 242 243
172 107 79 284 278 263 259 266 278 231 179 145 113 114 146 137 109 127 186 225 100 87 103 110 130 273 267 148 109 108 105 93 91 96 93 84 81 83 83 86 98 110 122 132 136 146 162 166 153 150 173 195 200 193 193 196 196 201 207 209 209 211 214 215 216 217 218 219 221 223 223 224 226 228 230 231 233 234 234 235 237 240 242 243 243 245
157 85 34 299 290 300 293 309 339 38 96 63 355 42 77 344 119 146 177 173 138 155 126 82 35 258 234 131 111 116 115 102 91 96 101 98 87 83 83 90 110 118 123 136 143 150 157 143 136 165 186 199 206 198 193 196 195 205 212 211 212 218 219 218 218 219 219 220 222 223 223 223 225 228 230 232 234 235 234 235 237 239 242 244 245 246
333 36 49 28 350 339 340 351 348 354 48 43 308 323 344 332 104 135 121 76 123 196 152 132 222 243 149 131 130 129 123 105 92 92 98 100 96 91 89 94 114 121 122 137 144 139 135 136 163 198 206 208 202 174 145 111 211 214 215 213 215 221 222 218 219 221 223 224 224 223 223 223 224 227 230 233 235 235 235 235 237 239 241 243 245 247
64 76 90 108 115 186 318 2 323 310 332 327 313 334 337 336 102 142 122 95 152 205 147 145 202 194 144 150 156 149 133 112 100 96 92 91 92 94 95 98 111 124 137 151 143 131 132 147 174 199 221 233 121 126 154 188 206 211 215 215 215 219 218 214 216 220 227 231 229 226 225 223 224 227 229 233 236 237 238 237 238 239 240 242 245 247
102 63 59 116 124 156 181 232 262 277 309 320 338 346 342 330 319 123 109 145 181 164 176 212 179 154 162 171 169 158 142 129 120 110 101 98 96 93 97 104 110 119 130 123 101 113 128 137 141 136 123 129 147 184 202 207 213 218 225 234 233 226 216 213 214 216 224 231 230 228 227 224 224 227 229 232 235 238 240 240 241 241 242 243 245 247
94 35 13 97 101 186 198 235 288 328 310 325 348 348 346 342 337 133 147 195 164 139 211 237 170 157 173 177 168 155 144 137 131 123 116 113 108 105 102 100 103 103 92 73 70 93 114 113 93 79 83 117 156 199 216 215 219 219 224 232 233 226 219 218 218 216 218 220 219 223 228 225 223 225 227 230 233 236 239 240 240 242 245 248 249 251
104 50 313 115 132 259 257 259 312 17 8 1 8 355 348 346 341 183 204 204 149 151 220 196 166 167 173 166 157 147 142 139 132 126 124 120 114 113 109 100 97 92 76 69 66 72 85 87 80 76 78 89 101 106 113 120 171 200 212 229 227 221 221 224 223 218 212 210 212 217 221 220 218 219 223 227 231 235 238 239 239 240 243 248 252 255
113 19 306 90 140 283 320 312 359 34 18 8 2 354 353 346 346 57 63 43 84 121 197 156 147 147 148 147 140 133 135 132 125 120 117 118 117 115 110 102 98 91 78 72 68 65 70 73 72 71 69 71 75 76 76 76 82 98 101 107 174 195 211 220 222 220 213 208 215 219 216 214 216 216 220 226 230 232 235 237 238 238 239 242 247 253
69 357 314 57 70 1 353 346 360 15 8 14 2 351 354 351 349 36 62 45 56 66 112 131 134 124 122 130 124 126 132 122 121 122 115 116 119 113 107 100 96 90 78 71 69 66 66 69 70 68 65 64 64 67 70 72 75 78 77 74 88 140 195 215 223 228 225 217 220 223 219 221 224 220 220 227 232 234 235 235 237 239 240 240 241 244
39 1 355 59 58 334 343 352 3 348 331 358 12 354 346 344 344 13 13 10 92 123 123 128 146 158 147 135 125 130 134 124 125 127 120 121 117 109 106 100 95 90 80 73 72 70 66 65 68 68 65 64 64 64 66 70 72 71 69 69 76 99 134 161 170 190 205 206 217 228 228 229 234 234 234 239 242 243 244 244 245 244 243 243 243 243
70 52 22 72 98 303 312 326 62 55 298 309 352 355 338 326 332 31 8 359 18 126 142 149 171 147 141 137 131 132 133 130 131 127 123 127 118 108 102 97 94 92 85 79 77 75 68 63 67 69 68 67 65 64 65 69 71 68 67 69 71 78 85 85 84 82 82 99 152 206 216 220 229 237 244 249 251 253 252 251 252 251 249 248 247 246
79 92 80 93 116 270 301 326 51 109 213 242 246 83 43 15 43 60 32 0 358 356 160 129 93 112 128 131 130 133 133 127 118 100 94 106 113 109 103 99 101 99 92 87 83 80 75 70 70 70 72 72 70 70 70 70 71 71 71 71 70 71 71 70 69 67 65 67 74 91 122 138 134 128 136 202 229 239 247 248 248 249 249 249 250 251
49 74 96 88 106 166 314 15 66 187 224 231 240 138 117 110 100 84 55 22 8 353 49 112 115 126 128 122 123 123 115 104 93 78 69 73 96 110 107 103 104 102 96 92 88 86 85 81 77 74 74 76 76 74 72 71 72 73 71 70 69 68 68 67 66 63 61 61 62 69 81 89 92 90 86 88 112 147 178 215 235 238 239 243 250 255
93 103 117 90 107 141 43 76 143 233 262 280 303 70 105 98 80 68 37 14 6 349 356 114 123 126 119 113 115 115 109 99 81 59 53 67 82 96 104 107 106 103 103 102 96 91 88 86 84 81 80 81 80 77 74 73 74 73 70 69 68 67 67 66 63 59 57 58 59 62 66 72 76 77 76 81 96 118 134 131 154 219 221 225 232 235
110 116 88 66 137 145 132 164 241 288 295 297 318 34 108 95 305 83 61 334 348 350 357 95 111 117 118 116 115 118 114 100 79 43 30 62 78 82 91 99 103 103 101 100 97 93 91 91 90 88 85 82 80 77 75 75 76 74 70 66 65 65 64 63 60 58 58 57 58 59 60 64 68 70 72 78 86 95 96 72 62 70 92 176 227 225
79 75 114 124 111 90 102 90 9 253 234 252 294 317 64 141 205 145 108 323 322 351 36 92 90 79 102 118 126 129 116 98 87 52 25 57 78 82 85 90 95 96 96 97 97 94 92 92 91 90 88 84 80 78 76 75 74 72 68 64 62 63 62 59 58 59 60 59 59 60 61 62 65 66 69 74 79 82 74 57 62 69 70 57 20 319
44 40 96 101 47 51 100 106 154 187 222 246 271 302 345 72 148 112 56 323 252 201 159 125 116 105 112 129 137 135 118 104 107 94 44 58 73 82 89 92 92 92 91 92 94 92 90 91 90 88 86 83 81 80 79 76 73 71 67 63 62 61 59 58 57 58 60 60 60 60 61 63 64 63 63 66 70 72 55 5 38 65 69 55 22 360
20 12 43 61 39 73 103 98 217 199 239 270 273 295 316 13 116 95 33 283 211 180 186 157 144 146 151 150 149 141 133 137 145 139 89 76 75 75 85 94 97 98 95 91 91 90 88 87 85 80 76 76 78 80 79 76 72 69 67 65 64 61 58 57 57 58 59 60 60 60 60 63 65 65 66 68 73 81 97 142 126 65 61 62 39 5
357 3 44 83 71 36 87 102 279 270 272 288 291 296 304 335 79 103 198 235 183 167 186 174 156 153 153 153 152 149 151 145 142 137 123 109 98 85 85 92 94 96 96 95 95 95 90 86 83 79 75 74 76 75 74 73 70 67 63 61 62 61 59 57 55 56 58 58 60 61 60 61 63 65 66 69 73 79 84 90 91 78 67 70 64 38
354 357 19 75 64 17 87 104 338 288 259 301 306 299 304 66 141 196 234 227 170 167 176 170 160 156 149 145 142 138 135 133 135 137 134 128 122 114 113 112 106 103 103 102 101 100 96 90 86 84 81 79 78 75 73 74 73 69 63 58 56 57 59 57 55 56 58 59 59 59 57 57 58 60 60 60 63 68 68 68 71 75 76 75 70 62
168 104 342 277 176 85 51 52 40 224 236 331 340 334 7 51 237 240 284 326 169 167 163 160 166 164 149 138 136 135 133 133 139 143 139 136 135 134 136 131 122 119 120 116 113 110 104 97 91 87 84 81 80 78 76 77 76 72 66 60 55 52 52 52 54 56 59 60 59 57 55 53 52 54 55 54 57 62 63 64 67 70 72 72 69 67
193 154 325 253 195 117 77 91 206 219 251 313 348 306 260 294 279 242 172 90 156 161 154 160 171 169 148 142 141 140 139 140 148 152 146 142 141 140 142 137 129 126 126 122 120 116 108 102 98 94 90 87 83 81 80 82 81 76 69 63 57 51 45 43 45 51 54 56 55 54 52 50 48 48 49 49 51 55 58 59 62 64 66 67 65 62
238 204 175 189 196 162 183 219 234 246 269 296 290 241 268 303 309 282 173 157 174 179 163 166 169 157 139 143 148 150 150 150 154 160 155 146 141 142 145 142 135 132 127 119 116 112 107 106 105 101 95 89 85 82 78 79 80 77 71 65 60 54 48 43 42 46 49 50 49 47 45 42 40 40 42 43 44 46 47 47 50 53 54 55 55 51
257 198 152 179 273 259 215 244 298 321 313 320 315 275 291 334 343 346 0 232 203 178 137 136 148 134 125 138 150 154 155 154 155 159 154 143 140 142 143 143 140 136 131 124 120 118 117 115 113 109 102 94 88 82 76 70 70 71 70 67 61 54 50 51 53 54 54 52 48 44 40 36 31 28 29 32 36 40 42 40 40 41 41 40 41 38
281 143 116 76 339 24 231 297 333 341 318 330 341 339 349 358 356 2 8 325 289 139 123 116 108 100 93 95 108 118 132 145 151 153 149 141 141 141 141 143 146 144 140 138 136 132 128 123 118 114 110 103 95 89 80 69 63 62 61 60 59 55 51 54 59 61 60 58 53 47 42 38 34 29 26 24 24 27 32 32 32 32 29 25 24 23
250 125 112 111 97 164 253 283 304 293 294 345 16 11 354 345 346 4 18 3 7 61 111 119 116 111 96 85 85 82 66 53 72 126 140 142 144 146 148 151 153 154 152 149 143 136 130 126 123 119 115 110 105 99 91 81 73 66 62 63 63 60 58 59 59 59 59 58 56 52 46 43 41 38 34 28 22 20 21 22 23 25 27 23 16 11
162 355 195 132 34 311 286 290 296 292 318 355 16 14 353 335 346 13 24 25 34 43 58 92 114 128 131 132 132 123 109 96 100 124 106 141 153 153 156 157 156 155 152 146 140 135 130 127 126 123 119 115 112 107 100 93 87 79 74 73 69 65 66 64 60 58 56 53 52 50 48 46 44 41 35 28 21 17 16 16 17 18 20 23 19 10
278 290 182 113 55 296 264 245 214 207 267 319 346 354 346 349 34 39 29 25 33 35 42 64 90 125 146 155 159 148 139 153 170 166 163 192 189 170 160 158 154 148 145 142 140 139 134 131 130 127 123 121 121 115 107 99 92 83 76 73 68 66 67 65 60 57 53 49 47 45 43 43 41 38 33 27 20 12 6 6 10 14 13 12 13 10
176 190 174 151 175 229 240 234 204 156 186 233 262 320 326 358 62 63 46 39 42 42 54 63 61 84 163 176 173 163 158 166 171 166 168 189 190 176 165 162 157 151 150 150 147 143 139 138 137 132 127 128 126 118 110 101 91 81 73 69 66 65 64 62 58 57 53 48 44 41 37 35 33 31 28 25 21 13 4 357 356 2 8 6 2 359